BTI31C LDZA-LIML

Flight info

Callsign BTI31C
Flight time 1h 12m
Altitude 38000
Route KOTOR1V/22 KOTOR DCT PEVAL/N0441F390 DCT ROSKA/N0436F380 DCT ADOSA DCT IDREK DCT ELTAR DCT NOBMI DCT NEVNI DCT OSKOR OSKOR1Y
Aircraft A320/M-VGDW/C

Departure

Time 2026-05-07 13:52
Airport Zagreb Franjo Tuđman International Airport (LDZA)

Arrival

Time 2026-05-07 15:04
Airport Milano Linate Airport (LIML)
Time Latitude Longitude Altitude Speed Heading
2026-05-07 13:36 45.74213 16.07864 369 ft 0 kts 139°
2026-05-07 13:44 45.74227 16.07846 366 ft 3 kts 139°
2026-05-07 13:45 45.74244 16.07826 363 ft 3 kts 139°
2026-05-07 13:45 45.74259 16.07807 367 ft 3 kts 109°
2026-05-07 13:45 45.74257 16.07783 365 ft 2 kts 34°
2026-05-07 13:45 45.74257 16.07782 365 ft 0 kts 29°
2026-05-07 13:47 45.74267 16.07791 360 ft 3 kts 35°
2026-05-07 13:48 45.74278 16.07804 363 ft 1 kts 41°
2026-05-07 13:48 45.74279 16.07805 363 ft 1 kts 41°
2026-05-07 13:48 45.74284 16.07811 361 ft 2 kts 42°
2026-05-07 13:48 45.74297 16.07828 363 ft 2 kts 41°
2026-05-07 13:49 45.74307 16.07843 363 ft 9 kts 46°
2026-05-07 13:49 45.74382 16.07894 361 ft 11 kts 335°
2026-05-07 13:49 45.74494 16.07757 355 ft 28 kts 323°
2026-05-07 13:49 45.74599 16.07738 358 ft 10 kts 38°
2026-05-07 13:50 45.74664 16.07831 362 ft 17 kts 46°
2026-05-07 13:50 45.74759 16.07978 360 ft 23 kts 47°
2026-05-07 13:50 45.74847 16.08064 366 ft 11 kts 348°
2026-05-07 13:50 45.74917 16.07988 366 ft 15 kts 312°
2026-05-07 13:51 45.74959 16.07903 368 ft 4 kts 253°
2026-05-07 13:51 45.74949 16.07881 366 ft 0 kts 231°
2026-05-07 13:51 45.74948 16.07880 366 ft 1 kts 230°
2026-05-07 13:51 45.74883 16.07773 363 ft 47 kts 227°
2026-05-07 13:52 45.74490 16.07178 368 ft 115 kts 227°
2026-05-07 13:52 45.73828 16.06154 536 ft 150 kts 227°
2026-05-07 13:52 45.73114 16.05034 1164 ft 155 kts 226°
2026-05-07 13:52 45.72366 16.03877 1841 ft 165 kts 224°
2026-05-07 13:53 45.71539 16.02597 2379 ft 190 kts 226°
2026-05-07 13:53 45.70552 16.01044 2692 ft 231 kts 228°
2026-05-07 13:53 45.69429 15.99195 3207 ft 254 kts 230°
2026-05-07 13:53 45.68275 15.97246 4203 ft 258 kts 231°
2026-05-07 13:54 45.67131 15.95282 5240 ft 262 kts 231°
2026-05-07 13:54 45.65948 15.93283 6424 ft 261 kts 230°
2026-05-07 13:54 45.64763 15.91331 7625 ft 260 kts 230°
2026-05-07 13:54 45.63565 15.89375 8715 ft 262 kts 229°
2026-05-07 13:55 45.62349 15.87399 9777 ft 265 kts 229°
2026-05-07 13:55 45.61111 15.85391 10566 ft 277 kts 229°
2026-05-07 13:55 45.59800 15.83231 11140 ft 295 kts 230°
2026-05-07 13:55 45.58455 15.80994 11971 ft 303 kts 230°
2026-05-07 13:56 45.57067 15.78686 12934 ft 308 kts 229°
2026-05-07 13:56 45.55677 15.76374 13920 ft 311 kts 229°
2026-05-07 13:56 45.54263 15.74027 14846 ft 313 kts 229°
2026-05-07 13:56 45.52829 15.71645 15751 ft 317 kts 229°
2026-05-07 13:57 45.51379 15.69242 16630 ft 320 kts 229°
2026-05-07 13:57 45.49914 15.66815 17506 ft 324 kts 229°
2026-05-07 13:57 45.48451 15.64392 18332 ft 328 kts 229°
2026-05-07 13:57 45.46959 15.61914 19117 ft 330 kts 230°
2026-05-07 13:58 45.45594 15.59272 19895 ft 332 kts 238°
2026-05-07 13:58 45.44566 15.56311 20672 ft 335 kts 248°
2026-05-07 13:58 45.43964 15.53082 21427 ft 340 kts 257°
2026-05-07 13:58 45.43653 15.49760 22184 ft 344 kts 261°
2026-05-07 13:59 45.43459 15.46337 22927 ft 347 kts 263°
2026-05-07 13:59 45.43325 15.42920 23626 ft 350 kts 263°
2026-05-07 13:59 45.43206 15.39444 24191 ft 352 kts 263°
2026-05-07 13:59 45.43079 15.35946 24709 ft 356 kts 263°
2026-05-07 14:00 45.42938 15.32407 25222 ft 359 kts 262°
2026-05-07 14:00 45.42782 15.28831 25740 ft 362 kts 262°
2026-05-07 14:00 45.42615 15.25236 26262 ft 365 kts 261°
2026-05-07 14:00 45.42441 15.21612 26760 ft 368 kts 261°
2026-05-07 14:01 45.42263 15.18010 27220 ft 371 kts 261°
2026-05-07 14:01 45.42079 15.14322 27678 ft 374 kts 261°
2026-05-07 14:01 45.41895 15.10611 28162 ft 376 kts 261°
2026-05-07 14:01 45.41709 15.06890 28641 ft 378 kts 261°
2026-05-07 14:02 45.41521 15.03143 29069 ft 381 kts 260°
2026-05-07 14:02 45.41328 14.99344 29505 ft 384 kts 260°
2026-05-07 14:02 45.41136 14.95579 29924 ft 387 kts 260°
2026-05-07 14:02 45.40939 14.91744 30314 ft 389 kts 260°
2026-05-07 14:03 45.40743 14.87886 30737 ft 391 kts 261°
2026-05-07 14:03 45.40545 14.84026 31241 ft 389 kts 261°
2026-05-07 14:03 45.40346 14.80173 31628 ft 390 kts 261°
2026-05-07 14:03 45.40145 14.76318 32095 ft 388 kts 262°
2026-05-07 14:04 45.39947 14.72543 32670 ft 384 kts 262°
2026-05-07 14:04 45.39747 14.68757 33183 ft 382 kts 262°
2026-05-07 14:04 45.39545 14.64992 33661 ft 380 kts 262°
2026-05-07 14:04 45.39342 14.61237 34098 ft 379 kts 262°
2026-05-07 14:05 45.39137 14.57496 34445 ft 379 kts 262°
2026-05-07 14:05 45.38935 14.53804 34758 ft 379 kts 262°
2026-05-07 14:05 45.38727 14.50042 35040 ft 380 kts 263°
2026-05-07 14:05 45.38520 14.46281 35339 ft 381 kts 263°
2026-05-07 14:06 45.38312 14.42551 35567 ft 383 kts 263°
2026-05-07 14:06 45.38101 14.38763 35810 ft 384 kts 263°
2026-05-07 14:06 45.37888 14.34965 36094 ft 384 kts 263°
2026-05-07 14:06 45.37674 14.31169 36354 ft 385 kts 263°
2026-05-07 14:07 45.37457 14.27349 36609 ft 385 kts 263°
2026-05-07 14:07 45.37242 14.23583 36872 ft 386 kts 263°
2026-05-07 14:07 45.37022 14.19758 37101 ft 387 kts 263°
2026-05-07 14:07 45.36802 14.15969 37351 ft 387 kts 263°
2026-05-07 14:08 45.36579 14.12131 37608 ft 388 kts 263°
2026-05-07 14:08 45.36355 14.08299 37837 ft 389 kts 263°
2026-05-07 14:08 45.36131 14.04503 37997 ft 391 kts 263°
2026-05-07 14:09 45.35671 13.96763 37997 ft 392 kts 263°
2026-05-07 14:09 45.35206 13.89013 37987 ft 392 kts 263°
2026-05-07 14:10 45.34741 13.81342 37990 ft 392 kts 263°
2026-05-07 14:10 45.34266 13.73606 37987 ft 392 kts 262°
2026-05-07 14:11 45.33784 13.65863 37994 ft 391 kts 262°
2026-05-07 14:11 45.33303 13.58202 37991 ft 391 kts 263°
2026-05-07 14:12 45.32813 13.50478 37986 ft 391 kts 263°
2026-05-07 14:12 45.32321 13.42804 37986 ft 391 kts 262°
2026-05-07 14:13 45.31823 13.35132 37982 ft 391 kts 262°
2026-05-07 14:13 45.31320 13.27445 37984 ft 391 kts 263°
2026-05-07 14:14 45.31188 13.19697 37977 ft 392 kts 267°
2026-05-07 14:14 45.31227 13.11992 37994 ft 392 kts 268°
2026-05-07 14:15 45.31284 13.05532 37973 ft 391 kts 268°
2026-05-07 14:15 45.31347 12.97819 37974 ft 392 kts 268°
2026-05-07 14:16 45.31402 12.90045 37971 ft 392 kts 269°
2026-05-07 14:16 45.32184 12.82341 37974 ft 396 kts 279°
2026-05-07 14:17 45.33519 12.74763 37970 ft 397 kts 281°
2026-05-07 14:17 45.34953 12.67226 37967 ft 397 kts 281°
2026-05-07 14:18 45.36399 12.59622 37962 ft 397 kts 281°
2026-05-07 14:18 45.37815 12.52058 37966 ft 396 kts 281°
2026-05-07 14:19 45.39215 12.44507 37965 ft 397 kts 281°
2026-05-07 14:19 45.40621 12.36880 37966 ft 398 kts 281°
2026-05-07 14:20 45.42013 12.29302 37963 ft 398 kts 281°
2026-05-07 14:20 45.43410 12.21667 37965 ft 398 kts 281°
2026-05-07 14:21 45.44794 12.14074 37965 ft 397 kts 281°
2026-05-07 14:21 45.46182 12.06429 37964 ft 398 kts 281°
2026-05-07 14:22 45.47567 11.98762 37961 ft 398 kts 281°
2026-05-07 14:22 45.48937 11.91152 37965 ft 398 kts 281°
2026-05-07 14:23 45.50305 11.83524 37965 ft 398 kts 281°
2026-05-07 14:23 45.51673 11.75858 37963 ft 398 kts 281°
2026-05-07 14:24 45.53035 11.68194 37961 ft 399 kts 281°
2026-05-07 14:24 45.54394 11.60518 37957 ft 399 kts 281°
2026-05-07 14:25 45.55747 11.52835 37952 ft 399 kts 281°
2026-05-07 14:25 45.57090 11.45180 37951 ft 399 kts 281°
2026-05-07 14:26 45.58432 11.37494 37829 ft 397 kts 281°
2026-05-07 14:26 45.59095 11.33701 37600 ft 389 kts 281°
2026-05-07 14:26 45.59737 11.30020 37360 ft 382 kts 280°
2026-05-07 14:26 45.60377 11.26330 36837 ft 382 kts 280°
2026-05-07 14:27 45.61017 11.22625 36347 ft 382 kts 280°
2026-05-07 14:27 45.61651 11.18938 35847 ft 382 kts 280°
2026-05-07 14:27 45.62276 11.15301 35336 ft 382 kts 280°
2026-05-07 14:27 45.62911 11.11597 34793 ft 384 kts 281°
2026-05-07 14:28 45.63548 11.07879 34257 ft 385 kts 281°
2026-05-07 14:28 45.64120 11.04150 33872 ft 379 kts 276°
2026-05-07 14:28 45.64379 11.00481 33490 ft 372 kts 271°
2026-05-07 14:28 45.64493 10.96814 33101 ft 366 kts 270°
2026-05-07 14:29 45.64555 10.93185 32725 ft 362 kts 269°
2026-05-07 14:29 45.64589 10.89602 32318 ft 358 kts 269°
2026-05-07 14:29 45.64610 10.86064 31945 ft 353 kts 269°
2026-05-07 14:29 45.64626 10.82619 31580 ft 349 kts 269°
2026-05-07 14:30 45.64643 10.79158 31208 ft 345 kts 269°
2026-05-07 14:30 45.64661 10.75736 30842 ft 342 kts 269°
2026-05-07 14:30 45.64682 10.72350 30473 ft 339 kts 269°
2026-05-07 14:30 45.64704 10.69025 30104 ft 336 kts 269°
2026-05-07 14:31 45.64726 10.65680 29692 ft 333 kts 269°
2026-05-07 14:31 45.64747 10.62394 29318 ft 329 kts 269°
2026-05-07 14:31 45.64765 10.59145 28961 ft 324 kts 270°
2026-05-07 14:31 45.64781 10.55937 28612 ft 320 kts 270°
2026-05-07 14:32 45.64794 10.52805 28249 ft 316 kts 270°
2026-05-07 14:32 45.64806 10.49668 27903 ft 314 kts 270°
2026-05-07 14:32 45.64816 10.46552 27553 ft 313 kts 270°
2026-05-07 14:32 45.64826 10.43434 27188 ft 313 kts 270°
2026-05-07 14:33 45.64837 10.40327 26836 ft 312 kts 270°
2026-05-07 14:33 45.64849 10.37257 26485 ft 312 kts 270°
2026-05-07 14:33 45.64860 10.34160 26130 ft 312 kts 270°
2026-05-07 14:33 45.64870 10.31055 25760 ft 311 kts 270°
2026-05-07 14:34 45.64880 10.27967 25410 ft 310 kts 270°
2026-05-07 14:34 45.64888 10.24911 25057 ft 310 kts 270°
2026-05-07 14:34 45.64895 10.21818 24694 ft 310 kts 270°
2026-05-07 14:34 45.64902 10.18735 24335 ft 310 kts 270°
2026-05-07 14:35 45.64907 10.15634 23976 ft 312 kts 270°
2026-05-07 14:35 45.64913 10.12562 23595 ft 312 kts 270°
2026-05-07 14:35 45.64924 10.09452 23206 ft 312 kts 270°
2026-05-07 14:35 45.64937 10.06350 22850 ft 311 kts 270°
2026-05-07 14:36 45.64950 10.03295 22493 ft 310 kts 270°
2026-05-07 14:36 45.64962 10.00217 22127 ft 308 kts 270°
2026-05-07 14:36 45.64973 9.97155 21769 ft 307 kts 270°
2026-05-07 14:36 45.64983 9.94099 21416 ft 306 kts 270°
2026-05-07 14:37 45.64993 9.91060 21048 ft 304 kts 270°
2026-05-07 14:37 45.65011 9.85072 20364 ft 301 kts 270°
2026-05-07 14:37 45.65009 9.82116 20171 ft 294 kts 268°
2026-05-07 14:38 45.64734 9.79216 19819 ft 294 kts 255°
2026-05-07 14:38 45.63897 9.76586 19480 ft 296 kts 238°
2026-05-07 14:38 45.62496 9.74426 19137 ft 298 kts 222°
2026-05-07 14:38 45.60821 9.72649 18800 ft 299 kts 218°
2026-05-07 14:39 45.59104 9.70964 18456 ft 299 kts 217°
2026-05-07 14:39 45.57373 9.69274 18091 ft 299 kts 217°
2026-05-07 14:39 45.55683 9.67616 17716 ft 298 kts 218°
2026-05-07 14:39 45.53977 9.65934 17457 ft 296 kts 218°
2026-05-07 14:40 45.52279 9.64256 17121 ft 294 kts 218°
2026-05-07 14:40 45.50623 9.62616 16791 ft 293 kts 218°
2026-05-07 14:40 45.48948 9.60956 16452 ft 292 kts 218°
2026-05-07 14:40 45.47282 9.59307 16116 ft 291 kts 218°
2026-05-07 14:41 45.45621 9.57662 15782 ft 290 kts 218°
2026-05-07 14:41 45.43963 9.56021 15439 ft 289 kts 218°
2026-05-07 14:41 45.42311 9.54387 15103 ft 288 kts 218°
2026-05-07 14:41 45.40664 9.52760 14765 ft 288 kts 217°
2026-05-07 14:42 45.39024 9.51140 14439 ft 287 kts 217°
2026-05-07 14:42 45.37418 9.49557 14272 ft 278 kts 218°
2026-05-07 14:42 45.35854 9.48018 14138 ft 270 kts 218°
2026-05-07 14:42 45.34309 9.46495 13817 ft 271 kts 218°
2026-05-07 14:43 45.32753 9.44968 13480 ft 271 kts 216°
2026-05-07 14:43 45.31068 9.43797 13177 ft 274 kts 198°
2026-05-07 14:43 45.29194 9.43538 13042 ft 267 kts 181°
2026-05-07 14:43 45.27357 9.43684 12871 ft 261 kts 179°
2026-05-07 14:44 45.25545 9.43891 12574 ft 261 kts 178°
2026-05-07 14:44 45.23748 9.44101 12255 ft 260 kts 178°
2026-05-07 14:44 45.21945 9.44306 11939 ft 258 kts 178°
2026-05-07 14:44 45.20158 9.44504 11630 ft 256 kts 178°
2026-05-07 14:45 45.18386 9.44697 11330 ft 254 kts 178°
2026-05-07 14:45 45.16644 9.44886 11048 ft 252 kts 178°
2026-05-07 14:45 45.14900 9.45072 10772 ft 250 kts 178°
2026-05-07 14:45 45.13166 9.45256 10503 ft 247 kts 178°
2026-05-07 14:46 45.11456 9.45438 10235 ft 245 kts 178°
2026-05-07 14:46 45.09774 9.45615 9957 ft 243 kts 178°
2026-05-07 14:46 45.08091 9.45794 9674 ft 241 kts 178°
2026-05-07 14:46 45.06420 9.45971 9400 ft 239 kts 178°
2026-05-07 14:47 45.04781 9.46144 9135 ft 237 kts 178°
2026-05-07 14:47 45.03133 9.46319 8870 ft 237 kts 178°
2026-05-07 14:47 45.01488 9.46420 8596 ft 235 kts 184°
2026-05-07 14:47 44.99847 9.46460 8344 ft 236 kts 178°
2026-05-07 14:48 44.98209 9.46619 8034 ft 236 kts 177°
2026-05-07 14:48 44.96599 9.46784 7883 ft 233 kts 177°
2026-05-07 14:48 44.94971 9.46949 7863 ft 234 kts 177°
2026-05-07 14:48 44.93334 9.47113 7834 ft 235 kts 177°
2026-05-07 14:49 44.91702 9.47274 7816 ft 235 kts 177°
2026-05-07 14:49 44.90066 9.47434 7784 ft 235 kts 178°
2026-05-07 14:49 44.88454 9.47600 7686 ft 234 kts 177°
2026-05-07 14:49 44.86823 9.47765 7589 ft 234 kts 178°
2026-05-07 14:50 44.85215 9.47930 7487 ft 233 kts 177°
2026-05-07 14:50 44.83598 9.48087 7391 ft 233 kts 178°
2026-05-07 14:50 44.81987 9.48221 7377 ft 232 kts 183°
2026-05-07 14:50 44.80470 9.47604 7375 ft 226 kts 215°
2026-05-07 14:51 44.79463 9.45954 7369 ft 224 kts 248°
2026-05-07 14:51 44.79269 9.43814 7367 ft 227 kts 280°
2026-05-07 14:51 44.79953 9.41815 7369 ft 230 kts 313°
2026-05-07 14:51 44.81303 9.40600 7376 ft 233 kts 338°
2026-05-07 14:52 44.82853 9.39971 7381 ft 236 kts 345°
2026-05-07 14:52 44.84464 9.39441 7374 ft 237 kts 345°
2026-05-07 14:52 44.86079 9.38921 7382 ft 237 kts 346°
2026-05-07 14:52 44.87689 9.38388 7382 ft 237 kts 344°
2026-05-07 14:53 44.89266 9.37818 7385 ft 237 kts 344°
2026-05-07 14:53 44.90864 9.37223 7386 ft 237 kts 343°
2026-05-07 14:53 44.92457 9.36631 7380 ft 237 kts 343°
2026-05-07 14:53 44.94051 9.36040 7313 ft 236 kts 343°
2026-05-07 14:54 44.95651 9.35440 7229 ft 237 kts 343°
2026-05-07 14:54 44.97245 9.34849 6981 ft 236 kts 343°
2026-05-07 14:54 44.98687 9.33879 6656 ft 233 kts 319°
2026-05-07 14:54 45.00024 9.32548 6364 ft 234 kts 336°
2026-05-07 14:55 45.01595 9.32144 6151 ft 231 kts 353°
2026-05-07 14:55 45.03182 9.32007 6009 ft 225 kts 356°
2026-05-07 14:55 45.04732 9.31901 5848 ft 222 kts 355°
2026-05-07 14:55 45.06282 9.31777 5621 ft 223 kts 355°
2026-05-07 14:56 45.07809 9.31637 5378 ft 222 kts 354°
2026-05-07 14:56 45.09351 9.31485 5131 ft 221 kts 354°
2026-05-07 14:56 45.10882 9.31326 4905 ft 218 kts 354°
2026-05-07 14:56 45.12376 9.31169 4670 ft 212 kts 354°
2026-05-07 14:57 45.13832 9.31013 4432 ft 207 kts 354°
2026-05-07 14:57 45.15251 9.30860 4212 ft 207 kts 354°
2026-05-07 14:57 45.16689 9.30703 3981 ft 206 kts 354°
2026-05-07 14:57 45.18077 9.30553 3865 ft 194 kts 354°
2026-05-07 14:58 45.19425 9.30407 3696 ft 194 kts 354°
2026-05-07 14:58 45.20774 9.30259 3510 ft 192 kts 354°
2026-05-07 14:58 45.22065 9.30119 3374 ft 179 kts 354°
2026-05-07 14:58 45.23254 9.29990 3237 ft 167 kts 355°
2026-05-07 14:59 45.24382 9.29867 3060 ft 157 kts 355°
2026-05-07 14:59 45.25095 9.29790 2981 ft 151 kts 355°
2026-05-07 14:59 45.26137 9.29676 2988 ft 150 kts 354°
2026-05-07 14:59 45.27185 9.29560 2990 ft 151 kts 354°
2026-05-07 15:00 45.28578 9.29407 2989 ft 152 kts 355°
2026-05-07 15:00 45.29291 9.29329 2994 ft 152 kts 355°
2026-05-07 15:00 45.30347 9.29224 2934 ft 152 kts 355°
2026-05-07 15:00 45.31388 9.29110 2744 ft 151 kts 355°
2026-05-07 15:01 45.32433 9.28997 2529 ft 150 kts 355°
2026-05-07 15:01 45.33477 9.28884 2351 ft 149 kts 355°
2026-05-07 15:01 45.34515 9.28773 2139 ft 148 kts 355°
2026-05-07 15:01 45.35489 9.28669 1938 ft 137 kts 355°
2026-05-07 15:02 45.36431 9.28560 1751 ft 135 kts 354°
2026-05-07 15:02 45.37369 9.28451 1586 ft 135 kts 356°
2026-05-07 15:02 45.38310 9.28379 1413 ft 136 kts 357°
2026-05-07 15:02 45.39240 9.28298 1210 ft 134 kts 354°
2026-05-07 15:03 45.40168 9.28188 1033 ft 134 kts 353°
2026-05-07 15:03 45.41109 9.28076 860 ft 134 kts 353°
2026-05-07 15:03 45.42043 9.27973 671 ft 135 kts 353°
2026-05-07 15:03 45.42961 9.27876 491 ft 133 kts 353°
2026-05-07 15:04 45.43879 9.27777 365 ft 128 kts 353°
2026-05-07 15:04 45.44617 9.27697 363 ft 70 kts 355°
2026-05-07 15:04 45.44987 9.27658 363 ft 57 kts 356°
2026-05-07 15:04 45.45327 9.27678 368 ft 44 kts 20°
2026-05-07 15:05 45.45455 9.27814 365 ft 0 kts 69°
2026-05-07 15:05 45.45459 9.27870 367 ft 21 kts 86°
2026-05-07 15:05 45.45517 9.27979 369 ft 13 kts
2026-05-07 15:05 45.45630 9.27983 369 ft 20 kts
2026-05-07 15:06 45.45791 9.27986 366 ft 26 kts
2026-05-07 15:06 45.45911 9.28024 372 ft 13 kts 32°
2026-05-07 15:06 45.45979 9.28032 371 ft 4 kts 360°
2026-05-07 15:06 45.45986 9.28032 368 ft 0 kts